sat.trackr.live / text

‹ back to catalog

STARLINK-6180

NORAD 56887 · 2023-083M

PAYLOAD ACTIVE UNKNOWN

§ Identity

Operator
Country
US
Launch date
2023-06-12
Launch site
AFETR
Launch vehicle
Mass (kg)
RCS (m²)

Purposes: comms

External: N2YO · Heavens-Above · Gunter

§ Orbital elements

Epoch: 2026-05-25T00:06:33.615072Z

Period
94.27 min
Inclination
43.0020°
Eccentricity
0.0001173
Mean motion
15.27581171 rev/d
Perigee alt
482.2 km
Apogee alt
483.9 km
Semi-major
6,861.2 km
B*
-7.3109e-5
RAAN
18.3135°
Arg perigee
264.3657°
Mean anomaly
95.7061°
Rev number
16,325

§ Raw data

STARLINK-61801 56887U 23083M   26145.00455573 -.00002273  00000+0 -73109-4 0  99962 56887  43.0020  18.3135 0001173 264.3657  95.7061 15.27581171163254

JSON: /api/v1/satellites/56887 · /tle

For live sub-satellite position, see the globe view (requires WebGL).

§ Visibility from observer

Set your observer location to see the next 7 days of passes ≥ 10°. The values pass through the URL so the page stays shareable.

No JS? Fill the form by hand. The geolocation button needs JavaScript.